Skip Page Navigation
NASA JPL Caltech
NASA Logo - Jet Propulsion Laboratory + View the NASA Portal
+ Near-Earth Object (NEO) Program
Search JPL
JPL Home Earth Solar System Stars & Galaxies Technology
JPL Solar System Dynamics
BODIES ORBITS EPHEMERIDES TOOLS PHYSICAL DATA DISCOVERY FAQ SITE MAP
JPL Small-Body Database Browser
Search: [ help ]  
51341 (2000 QP26)
Classification: Main-belt Asteroid          SPK-ID: 2051341
Ephemeris | Orbit Diagram | Orbital Elements | Physical Parameters | Discovery Circumstances ]

[ show orbit diagram ]
Orbital Elements at Epoch 2456400.5 (2013-Apr-18.0) TDB
Reference: MPO233782 (heliocentric ecliptic J2000)
 Element Value Uncertainty (1-sigma)   Units 
e 0.2991603 n/a  
a 2.6714627 n/a AU
q 1.8722671 n/a AU
i 6.01848 n/a deg
node 182.51907 n/a deg
peri 181.33192 n/a deg
M 312.27487 n/a deg
tp 2456611.9300478
(2013-Nov-15.43004780)
n/a JED
period 1594.8582479
4.37
n/a
n/a
d
yr
n 0.22572539 n/a deg/d
Q 3.4706583 n/a AU
  Orbit Determination Parameters
   # obs. used (total)      518  
   first obs. used      1996-??-??  
   last obs. used      2012-06-13  
   # oppositions      12  
   planetary ephem.      DE403  
   condition code      0  
   fit RMS      0.52  
   data source      MPC:mpn  
   producer      MPCLINUX  

Additional Information
 T_jup = 3.308 

Ephemeris | Orbit Diagram | Orbital Elements | Physical Parameters | Discovery Circumstances ]

Physical Parameter Table
Parameter Symbol Value Units Sigma Reference Notes
absolute magnitude H 14.4 mag n/a MPO233782  

51341 (2000 QP26)          Discovered 2000-Aug-23 by Shimizu, Y., Urata, T. at Nachi-Katsuura (905)
Reference: 20021120/Numbers.arcLast Updated: 2004-04-19
Ephemeris | Orbit Diagram | Orbital Elements | Physical Parameters | Discovery Circumstances ]
ABOUT SSD CREDITS/AWARDS PRIVACY/COPYRIGHT GLOSSARY LINKS
FirstGov 2013-May-23 10:05 UT
(server date/time)  
NASA Home Page
Site Manager:   Donald K. Yeomans
Webmaster  Alan B. Chamberlin